Flag for Israel Weather past 2 weeks in Petah Tikva, Israel

Now
82 °F

Clear.


Feels Like: 88 °F
Forecast: 79 / 92 °F
Wind: 5 mph from North

Location: Ben Gurion International Airport

Current Time: Jul 31, 2015 at 11:11:50 PM

Latest Report: Jul 31, 2015 at 10:20 PM


Visibility: 10 mi

Pressure: 29.74 "Hg

Humidity: 74%

Dew point: 73 °F

Location of Petah TikvaLocation

Historic Weather in Petah Tikva — Graph

°F

Petah Tikva temperature yesterday

Maximum temperature yesterday: 93 °F (at 3:20 PM)
Minimum temperature yesterday: 73 °F (at 3:50 AM)
Average temperature yesterday: 83 °F

Past Weeks' High & Low Weather Summary

 TemperatureHumidityPressure
High97 °F (Jul 24, 10:50 AM)89% (Jul 18, 12:20 AM)29.80 "Hg (Jul 18, 12:20 AM)
Low72 °F (Jul 24, 5:50 AM)28% (Jul 24, 10:20 AM)29.68 "Hg (Jul 19, 4:20 PM)
Average83 °F64%29.73 "Hg
* Reported Jul 16 9:20 PM — Jul 31 9:50 PM, Petah Tikva, Weather by CustomWeather, © 2015

Note: Actual official high and low records may vary slightly from our data, if they occured in-between our weather recording intervals... More about our weather records

Advertising

Petah Tikva weather history for previous 24 hours

 ConditionsComfort  
Time TempWeatherWind HumidityBarometerVisibility
9:50 PM
Fri, Jul 31
82 °FClear.6 mph74%29.74 "Hg10 mi
9:20 PM82 °FClear.6 mph74%29.74 "Hg10 mi
8:50 PM82 °FClear.5 mph74%29.74 "Hg10 mi
8:20 PM84 °FSunny.6 mph89%29.74 "Hg10 mi
7:50 PM84 °FSunny.7 mph66%29.71 "Hg10 mi
7:20 PM86 °FSunny.6 mph62%29.71 "Hg10 mi
6:50 PM86 °FSunny.7 mph62%29.71 "Hg10 mi
6:20 PM88 °FSunny.9 mph59%29.71 "Hg10 mi
5:50 PM90 °FSunny.9 mph52%29.71 "Hg10 mi
5:20 PM90 °FSunny.9 mph52%29.71 "Hg10 mi
4:50 PM90 °FSunny.10 mph55%29.71 "Hg10 mi
4:20 PM90 °FSunny.14 mph59%29.71 "Hg10 mi
3:50 PM90 °FSunny.16 mph55%29.71 "Hg10 mi
3:20 PM93 °FSunny.14 mph44%29.71 "Hg10 mi
2:50 PM93 °FSunny.12 mph44%29.71 "Hg10 mi
2:20 PM91 °FSunny.14 mph49%29.71 "Hg10 mi
1:50 PM93 °FSunny.15 mph44%29.71 "Hg10 mi
1:20 PM93 °FPassing clouds.10 mph47%29.71 "HgN/A
12:50 PM93 °FPassing clouds.10 mph49%29.71 "HgN/A
12:20 PM93 °FPassing clouds.10 mph49%29.71 "HgN/A
11:50 AM93 °FPassing clouds.7 mph44%29.71 "HgN/A
11:20 AM93 °FPassing clouds.8 mph36%29.71 "HgN/A
10:50 AM91 °FPassing clouds.7 mph44%29.74 "HgN/A
10:20 AM90 °FSunny.7 mph46%29.74 "Hg10 mi
9:50 AM88 °FPassing clouds.6 mph52%29.74 "HgN/A
9:20 AM86 °FSunny.6 mph55%29.74 "Hg10 mi
8:50 AM84 °FSunny.5 mph66%29.74 "Hg10 mi
8:20 AM82 °FSunny.5 mph62%29.74 "Hg10 mi
7:50 AM82 °FSunny.2 mph48%29.74 "Hg10 mi
7:20 AM81 °FSunny.3 mph48%29.74 "Hg10 mi
6:50 AM77 °FPassing clouds.3 mph57%29.71 "HgN/A
6:20 AM77 °FPassing clouds.8 mph54%29.71 "HgN/A
5:50 AM77 °FClear.7 mph54%29.71 "Hg10 mi
5:20 AM77 °FClear.5 mph54%29.71 "Hg10 mi
4:50 AM77 °FClear.5 mph57%29.71 "Hg10 mi
4:20 AM77 °FClear.7 mph57%29.71 "Hg10 mi
3:50 AM77 °FClear.6 mph57%29.71 "Hg10 mi
3:20 AM77 °FClear.7 mph61%29.71 "Hg10 mi
2:50 AM77 °FClear.7 mph61%29.71 "Hg10 mi
2:20 AM79 °FClear.3 mph61%29.71 "Hg10 mi
1:50 AM79 °FClear.1 mph61%29.71 "Hg10 mi
1:20 AM79 °FClear.1 mph58%29.71 "Hg10 mi
12:20 AM79 °FClear.1 mph70%29.71 "Hg10 mi
11:50 PM
Thu, Jul 30
81 °FClear.1 mph66%29.71 "Hg10 mi
11:20 PM81 °FClear.2 mph66%29.71 "Hg10 mi
Weather by CustomWeather, © 2015

See weather overviewHow to use our weather pages